Powrót do katalogu

STARLINK-32232

AktywnyŁącznośćVLEO
NORAD 60431·PAYLOAD·🇺🇸 United States

Wystrzelony Aug 12, 2024 z Cape Canaveral Space Force Station

Loading…

Następne Przeloty (najbliższe 24 godziny)

TLE

ŚwieżeSource: CelesTrak SupGP

Epoka: Sep 14, 2026, 13:42 UTC

1 60431C 24144G   26257.57131944 -.00039795  00000+0 -11753-2 0  2575
2 60431  53.1598  57.3090 0001106  87.6734 244.5826 15.34422783    15

Śledź STARLINK-32232 w czasie rzeczywistym z AllMySat

Download on the App Store